Current weather by "City, St" or "zip code"  
 

Current Conditions: Marianna Municipal Airport, FL

Overcast


81.0 F

Last Updated on Oct 21 2021, 12:53 pm CDT
Humidity: 61%
Wind Speed: S 5.8 mph
Barometer 30.14 in
Dewpoint: 66.0 F
Visibility: 10.00 mi
Precip: --
Heat Index: 83 F
Wind Chill: NA
Current conditions at:

Marianna Municipal Airport, FL (KMAI)

Lat: 30.83698 Lon: 85.18347

Local Radar Image active severe weather and emergency alerts image image weather storm and storm spotter reports image weather observation monitoring service image
Local
Radar
Active
Alerts
Storm Reports Obs
Monitoring

Sign-up For Email & Text Message Weather Alert Notification Services



Advertise Here

Observation History for Marianna Municipal Airport, FL


Time Wind
(mph)
Vis
(mi)
Weather Precip (in) Temperature (F) Relative
Humidity
Wind
Chill
(F)
Heat
Index
(F)
Pressure
Air Dwpt altimeter
(in)
sea level
(mb)
Rmks
12:53 pm CDT S 5.8 10.00 Overcast -- 81.0 66.0 61% NA 83 30.14 1020.3
11:53 am CDT SW 8.1 10.00 Overcast -- 81.0 66.9 62% NA 83 30.16 1021.3
10:53 am CDT SE 8.1 10.00 Mostly Cloudy -- 80.0 66.9 64% NA 82 30.17 1021.5
9:53 am CDT 5.8 10.00 Fair -- 77.0 66.9 71% NA NA 30.18 1021.8
8:53 am CDT SE 6.9 10.00 Fair -- 71.0 63.0 76% NA NA 30.17 1021.6
7:53 am CDT N 0.0 10.00 Mostly Cloudy -- 65.0 61.0 87% NA NA 30.16 1021.3
6:53 am CDT N 0.0 10.00 Overcast -- 63.0 61.0 93% NA NA 30.15 1020.8
5:53 am CDT N 0.0 10.00 Fair -- 63.0 61.0 93% NA NA 30.15 1020.9
4:53 am CDT N 0.0 10.00 Fair -- 64.0 61.0 90% NA NA 30.14 1020.5
3:53 am CDT N 0.0 10.00 Fair -- 64.0 61.0 90% NA NA 30.14 1020.5
2:53 am CDT NE 4.6 10.00 Fair -- 64.0 61.0 90% NA NA 30.14 1020.4
1:53 am CDT N 0.0 10.00 Fair -- 64.0 61.0 90% NA NA 30.15 1020.8
12:53 am CDT N 0.0 10.00 Fair -- 64.0 61.0 90% NA NA 30.16 1021.0
11:53 pm CDT NE 3.5 10.00 Fair -- 65.0 61.0 87% NA NA 30.18 1021.7
10:53 pm CDT N 0.0 10.00 Fair -- 66.0 61.0 84% NA NA 30.20 1022.4
9:53 pm CDT N 0.0 10.00 Fair -- 68.0 61.0 78% NA NA 30.19 1022.3
8:53 pm CDT S 3.5 10.00 Fair -- 70.0 61.0 73% NA NA 30.17 1021.7
7:53 pm CDT S 5.8 10.00 Fair -- 71.0 61.0 71% NA NA 30.17 1021.4
6:53 pm CDT SE 3.5 10.00 Fair -- 74.0 60.1 62% NA NA 30.16 1021.2
5:53 pm CDT SE 3.5 10.00 Fair -- 77.0 59.0 54% NA NA 30.16 1021.3
4:53 pm CDT SE 4.6 10.00 Fair -- 80.0 57.9 47% NA 81 30.16 1021.0
3:53 pm CDT SE 5.8 10.00 A Few Clouds -- 82.0 57.9 44% NA 82 30.16 1021.2
2:53 pm CDT E 9.2 10.00 Fair -- 83.0 59.0 44% NA 83 30.17 1021.6
1:53 pm CDT E 9.2 10.00 Fair -- 80.0 59.0 49% NA 81 30.19 1022.1

Regional Weather Observation


Tri-County Airport, FL (K1J0)

Mostly Cloudy
81.0 F

Dothan, Dothan Regional Airport, AL (KDHN)

Mostly Cloudy
81.0 F

Cairns Army Air Field / Ozark, AL (KOZR)

Mostly Cloudy
80.0 F

Hanchey AHP / Ozark, AL (KHEY)

Mostly Cloudy
80.0 F

Fort Rucker, Lowe Army Heliport, AL (KLOR)

Overcast
78.0 F

Enterprise Municipal Airport, AL (KEDN)

Overcast
77.0 F

Advertise Here


Advertise Here